SCP
0 -0 -0 -0 -0 -0 -0 -0 -0 -0 -0 -0 -0 -0 0 -0 -0 -0 -0 -0 -0 -0 -0 -0 -0 -0 -0 -0 0 0 -0 -0 -0 0 -0 -0 -0 0 -0 -0 0 0 -0 -0 -0 0 0
-0 -0 -0 -0 -0 -0 -0 -0 -0 -0 -0 -0 -0 0 -0 -0 -0 -0 -0 -0 -0 -0 -0 -0 -0 0 -0 -0 0 0 -0 -0 -0 -0 0 0 0 0 0 0 0 0 -0 -0 0 0 0
-0 -0 0 0 -0 -0 -0 -0 -0 -0 -0 0 0 -0 -0 -0 -0 -0 -0 -0 -0 -0 0 -0 -0 -0 -0 0 -0 -0 -0 -0 -0 0 0 0 -0 -0 0 0 0 0 -0 0 0 -0 -0
-0 0 0 0 0 -0 -0 -0 -0 -0 -0 0 0 -0 -0 -0 -0 -0 -0 -0 -0 -0 -0 -0 -0 -0 0 -0 0 -0 0 0 0 0 0 -0 -0 -0 0 -0 0 0 0 -0 -0 -0 -0
0 0 0 0 0 0 -0 -0 -0 -0 -0 -0 -0 -0 -0 -0 -0 -0 -0 -0 0 0 -0 0 -0 -0 0 0 0 0 0 0 -0 0 0 -0 0 0 0 0 0 0 -0 0 0 0 -0
-0 0 0 0 0 -0 -0 -0 -0 -0 -0 -0 -0 -0 -0 -0 -0 -0 -0 -0 -0 -0 0 -0 -0 -0 0 -0 0 -0 -0 -0 -0 -0 0 0 0 0 0 0 0 -0 -0 0 0 0 0
-0 0 0 0 -0 -0 -0 -0 -0 -0 -0 -0 -0 -0 -0 -0 -0 -0 -0 0 0 0 -0 0 -0 0 0 -0 0 0 -0 -0 -0 0 0 -0 -0 0 0 0 0 0 -0 -0 0 -0 -0
-0 -0 0 0 0 -0 -0 -0 -0 -0 -0 -0 -0 -0 -0 -0 -0 0 -0 0 -0 -0 -0 -0 -0 0 -0 0 0 -0 0 -0 -0 -0 0 -0 0 0 0 0 0 -0 -0 -0 0 0 -0
-0 0 0 0 0 -0 -0 -0 -0 -0 -0 -0 -0 -0 -0 -0 -0 -0 0 0 -0 0 -0 -0 0 0 0 0 -0 -0 -0 -0 -0 -0 0 -0 -0 0 0 0 0 0 0 0 -0 -0 -0
0 0 0 0 0 -0 -0 -0 -0 -0 -0 -0 -0 -0 -0 0 -0 -0 0 -0 -0 0 -0 -0 -0 -0 -0 0 0 -0 -0 -0 -0 0 -0 -0 -0 -0 -0 0 0 0 0 -0 -0 -0 -0
0 0 0 0 0 -0 -0 -0 -0 -0 -0 -0 -0 -0 0 -0 0 0 -0 -0 -0 -0 0 -0 -0 -0 -0 0 -0 -0 0 -0 0 -0 -0 -0 -0 -0 -0 -0 -0 0 0 0 0 0 0
0 0 0 0 0 0 0 -0 -0 -0 -0 -0 -0 -0 0 0 -0 -0 -0 -0 -0 0 0 0 -0 0 0 -0 -0 0 0 0 -0 -0 -0 -0 -0 -0 -0 0 -0 0 0 0 0 0 0
0 0 0 0 0 -0 0 -0 -0 -0 -0 -0 -0 0 -0 0 0 0 -0 -0 0 0 0 0 0 -0 -0 -0 -0 -0 -0 -0 -0 -0 0 -0 0 -0 -0 -0 0 0 0 0 -0 0 0
0 0 0 0 -0 -0 0 -0 -0 -0 -0 -0 -0 0 0 0 0 0 0 0 0 0 0 0 0 -0 -0 -0 -0 -0 -0 -0 0 -0 -0 -0 -0 0 -0 0 -0 0 0 0 0 0 0
0 0 0 -0 -0 -0 -0 -0 -0 -0 -0 -0 0 0 0 0 0 0 0 0 0 0 0 0 0 0 0 -0 -0 0 -0 -0 -0 -0 -0 0 0 -0 0 0 0 0 0 0 0 0 0
0 0 0 -0 -0 -0 -0 -0 -0 -0 -0 -0 0 0 0 0 0 0 0 0 0 0 0 0 0 0 0 0 0 0 0 0 0 -0 -0 0 -0 0 0 0 0 0 0 0 0 0 0
0 -0 -0 -0 0 -0 -0 -0 -0 -0 -0 -0 0 0 0 0 0 0 0 0 0 0 0 0 0 0 0 0 0 0 0 0 0 0 0 0 0 0 0 0 0 0 0 0 0 0 0
-0 -0 -0 0 0 -0 -0 -0 -0 -0 -0 0 0 0 0 0 0 0 0 0 0 0 0 0 0 0 0 0 0 0 0 0 0 0 0 0 0 0 -0 0 0 0 0 0 0 0 0
-0 -0 -0 0 0 -0 -0 -0 -0 -0 -0 0 0 0 0 0 0 0 0 0 0 0 0 0 0 0 0 0 0 0 0 0 0 0 0 0 0 0 0 0 0 0 0 0 0 0 0
-0 -0 -0 0 0 0 -0 -0 -0 -0 -0 -0 0 0 0 0 0 0 0 0 0 0 0 0 0 0 0 0 0 0 0 0 0 0 0 0 0 0 0 0 0 0 0 0 0 0 0
-0 -0 -0 0 0 0 -0 -0 -0 -0 -0 -0 0 0 0 0 0 0 0 0 0 0 0 0 0 0 0 0 0 0 0 0 0 0 0 0 0 0 0 0 0 0 0 0 0 0 0
-0 -0 0 0 0 0 -0 -0 -0 -0 -0 0 0 0 0 0 0 0 0 0 0 0 0 0 0 0 0 0 0 0 0 0 0 0 0 0 0 0 0 0 0 0 0 0 0 0 0
0 -0 0 0 0 0 -0 -0 -0 -0 -0 -0 0 0 0 0 0 0 0 0 0 0 0 0 0 0 0 0 0 0 0 0 0 0 0 0 0 0 0 0 0 0 0 0 0 0 0
-0 0 0 0 0 0 0 0 -0 -0 0 -0 0 0 0 0 0 0 0 0 0 0 0 0 0 0 0 0 0 0 0 0 0 0 0 0 0 0 0 0 0 0 0 0 0 0 0
-0 -0 0 0 0 0 0 0 -0 -0 -0 -0 -0 0 0 0 0 0 0 0 0 0 0 0 0 0 0 0 0 0 0 0 0 0 0 0 0 0 0 0 0 0 0 0 0 0 0
0 -0 0 0 0 -0 -0 -0 -0 -0 -0 0 0 0 0 0 0 0 0 0 0 0 0 0 0 0 0 0 0 0 0 0 0 0 0 0 0 0 0 0 0 0 0 0 0 0 0
0 0 0 0 0 0 -0 -0 -0 -0 0 0 0 0 0 0 0 0 0 0 0 0 0 0 0 0 0 0 0 0 0 0 0 0 0 0 0 0 0 0 0 0 0 0 0 0 0
0 0 0 0 0 0 0 0 0 0 0 0 0 0 0 0 0 0 0 0 0 0 0 0 0 0 0 0 0 0 0 0 0 0 0 0 0 0 0 0 0 0 0 0 0 0 0
0 0 0 0 0 0 0 0 0 0 0 0 0 0 0 0 0 0 0 -0 -0 0 0 0 0 0 0 0 0 0 0 0 0 0 0 0 0 0 0 0 0 0 0 0 0 0 0
Wind_Speed_500mb
41 41 41 41 40 39 39 38 36 34 30 28 25 21 16 12 10 8 6 6 6 6 3 5 11 14 14 12 5 8 20 37 34 34 30 23 18 8 1 6 6 4 1 6 8 6 7
46 45 44 43 42 41 41 40 40 39 37 33 28 24 20 15 11 8 5 3 2 2 4 2 7 13 15 11 13 11 12 41 38 35 26 19 8 9 11 5 3 3 9 3 7 8 11
47 47 46 46 44 44 43 42 42 41 40 38 34 30 24 17 14 11 7 5 3 1 2 1 2 10 15 19 14 11 17 31 30 31 17 20 5 3 9 8 6 9 3 3 9 11 5
49 50 49 48 48 46 45 43 41 41 41 40 38 35 30 21 15 14 11 8 6 4 5 6 3 4 10 18 16 18 22 31 27 27 13 17 9 7 5 14 5 4 2 6 4 1 8
52 53 53 52 51 51 49 45 42 40 40 40 40 39 34 25 14 14 13 11 9 8 7 10 6 5 6 19 19 21 17 19 27 19 12 10 12 8 9 3 1 1 9 6 4 10 1
53 54 55 54 54 53 52 47 45 42 40 41 41 42 35 26 12 15 13 11 10 10 11 8 11 5 8 12 23 25 21 15 19 25 16 7 5 4 5 5 9 11 9 6 10 11 12
54 55 57 57 56 56 55 54 49 45 42 42 43 42 35 28 11 17 16 11 6 6 21 13 7 5 6 7 21 23 27 24 22 13 10 6 10 18 12 17 12 12 9 14 6 12 19
57 59 60 60 59 58 57 56 54 47 44 45 46 41 34 24 11 21 22 14 9 5 5 16 29 24 12 13 8 18 26 19 11 13 12 7 24 10 10 11 15 15 19 16 3 8 20
59 63 65 65 63 61 61 59 55 50 45 48 48 43 32 14 12 23 26 20 10 6 3 6 14 22 21 25 9 18 37 20 14 14 17 18 7 5 12 14 11 17 17 8 9 10 16
63 66 70 70 67 66 66 63 59 53 48 51 51 40 21 5 12 19 19 23 18 8 3 5 6 9 19 16 10 21 37 22 8 21 13 14 10 17 12 12 8 8 4 10 11 7 5
67 69 73 73 71 69 68 66 62 55 50 52 49 26 7 16 16 26 24 12 18 16 2 4 7 10 20 16 12 15 40 24 16 10 11 12 7 13 11 7 12 8 3 14 10 6 6
68 72 75 74 74 73 71 69 65 56 51 49 33 15 5 23 26 24 18 15 21 5 4 5 9 12 13 8 5 11 13 20 11 8 7 17 5 10 8 6 8 18 18 15 7 1 7
69 74 78 77 76 75 75 71 64 56 52 43 18 11 12 22 23 19 13 29 5 5 2 5 4 9 15 13 11 11 20 19 14 15 25 18 28 18 13 11 13 8 9 2 4 5 6
71 76 78 77 77 77 75 70 62 56 51 34 13 11 19 17 27 16 32 4 4 2 2 3 4 2 15 16 11 9 14 21 15 9 2 7 14 17 21 28 21 20 11 7 10 8 7
73 77 78 78 78 76 72 68 63 56 48 21 14 21 18 21 14 19 7 3 1 4 3 9 1 4 11 11 7 11 13 18 21 33 20 10 11 4 14 11 20 13 17 4 4 2 7
73 76 77 79 78 72 67 68 65 55 44 12 22 24 20 17 10 9 3 3 3 6 7 2 4 3 7 11 17 14 16 7 14 35 47 10 19 8 4 10 9 12 19 7 6 8 14
72 73 75 78 75 67 65 67 66 58 44 8 15 9 8 9 6 4 4 3 5 5 7 4 2 4 2 4 9 12 11 4 6 4 30 18 14 29 4 15 20 10 9 3 3 7 14
70 69 72 74 71 65 62 62 65 62 48 9 7 5 1 7 4 4 4 3 8 7 13 4 3 2 4 2 6 9 13 7 10 11 16 19 10 21 34 12 6 6 14 12 12 10 2
65 65 68 70 67 65 63 60 61 60 53 24 7 6 13 7 4 4 3 1 4 10 10 9 6 4 4 2 6 4 3 3 20 8 10 15 12 10 12 8 8 15 16 21 13 4 16
61 62 63 65 63 63 62 60 59 57 48 19 5 2 15 22 12 5 4 5 4 11 3 10 8 0 4 3 3 5 5 5 21 7 4 18 12 16 24 26 2 10 15 23 29 14 15
57 58 58 60 60 60 60 59 58 57 46 9 13 7 7 5 10 7 2 3 4 7 8 11 2 12 6 5 4 3 6 13 5 6 8 7 13 18 31 32 18 24 26 25 32 29 21
53 54 53 56 57 57 58 58 57 58 40 50 10 7 7 5 4 3 6 4 3 6 6 3 6 20 12 6 4 6 14 5 8 7 9 2 9 4 13 26 26 28 27 26 36 17 19
50 50 50 52 53 53 54 54 55 56 52 28 25 16 5 7 4 2 3 4 1 10 7 8 14 13 15 2 22 30 28 36 34 17 13 9 6 5 24 18 19 22 28 31 22 19 28
47 46 46 48 49 49 50 50 49 49 48 41 38 16 8 4 2 3 3 8 12 8 8 17 26 8 8 36 42 35 25 35 35 37 38 21 13 8 15 13 33 22 8 22 33 20 26
44 43 43 43 46 46 48 47 42 39 39 33 33 24 11 4 6 2 3 7 16 16 12 15 16 8 31 17 8 11 10 11 24 32 30 31 24 14 16 22 20 23 6 8 17 26 26
41 40 40 41 44 45 44 41 35 34 35 32 25 26 12 4 4 4 7 6 5 7 7 7 14 23 6 6 6 9 9 4 7 6 7 7 28 23 11 19 36 26 17 23 14 19 1
38 37 38 40 41 42 41 33 31 31 33 32 22 22 15 7 7 6 6 5 3 3 7 10 15 7 9 3 7 9 13 5 9 11 8 2 4 20 25 20 15 15 32 17 16 10 32
33 35 37 40 38 38 35 32 33 35 33 31 24 24 22 10 25 13 11 10 7 5 6 8 10 2 4 3 5 3 5 3 7 4 8 7 7 7 5 9 22 33 7 2 17 33 28
30 33 36 38 38 36 30 30 32 34 34 31 27 30 29 17 18 37 31 27 31 19 11 7 5 6 4 3 1 4 5 5 5 7 5 8 5 7 8 5 16 17 14 29 27 25 20
Wind_Direction_500mb
37 35 33 30 26 22 18 13 10 8 6 1 352 346 340 332 331 338 358 19 31 36 41 206 204 203 190 212 192 152 185 183 179 183 182 177 172 199 311 122 131 302 346 3 359 130 49
39 34 30 27 24 20 16 13 9 6 3 358 352 343 329 319 305 300 316 338 1 43 58 101 189 193 188 216 181 164 161 184 191 187 190 185 217 198 110 124 36 21 78 13 343 3 45
36 32 28 24 22 18 14 11 8 4 1 357 353 347 334 310 292 277 264 263 268 305 202 125 152 196 207 198 195 204 160 186 186 193 204 190 218 159 134 121 118 130 329 109 44 337 5
31 27 25 21 18 15 11 8 4 359 357 353 348 343 337 319 282 268 252 242 243 243 228 228 245 248 233 205 193 171 162 181 183 186 127 194 212 120 77 123 87 317 295 343 94 312 355
28 25 22 20 16 14 10 5 2 357 351 348 344 338 336 327 284 254 242 232 227 234 230 224 248 236 244 195 183 175 162 185 185 178 181 168 159 103 119 143 352 233 324 286 289 190 96
23 22 19 16 11 9 9 6 1 356 350 345 341 335 334 332 287 239 229 218 212 223 218 230 239 270 210 187 189 184 165 147 156 149 135 139 100 163 135 206 332 324 307 255 260 189 188
18 16 13 10 7 5 4 4 1 355 349 343 340 334 330 328 275 222 212 190 203 240 216 204 202 130 87 176 196 194 190 148 131 146 183 171 228 241 254 229 263 287 267 276 234 190 196
16 12 9 5 3 2 0 360 358 354 347 341 338 331 325 320 248 212 203 196 192 163 292 245 237 243 225 138 149 190 188 167 169 171 139 181 247 240 248 239 243 263 282 271 277 177 209
12 9 6 4 2 0 358 356 354 352 346 341 336 330 320 308 214 207 211 203 201 204 278 260 233 232 224 221 222 190 175 161 173 184 194 230 242 80 244 273 270 281 262 263 291 162 223
8 7 5 4 1 360 357 354 353 351 346 341 335 331 314 231 188 197 207 195 203 193 292 171 215 206 189 184 201 201 189 176 166 211 181 253 269 255 255 261 240 304 290 253 177 208 311
4 4 3 3 0 356 355 354 353 352 348 344 338 339 308 164 153 150 154 157 197 174 187 122 135 172 165 183 139 177 183 184 204 183 194 225 241 227 240 282 194 340 23 137 164 187 283
3 2 1 1 359 355 354 355 355 355 350 348 349 0 128 161 149 152 153 144 136 221 146 123 132 164 167 197 139 124 164 188 201 192 235 256 261 260 266 86 215 145 106 92 89 162 261
1 0 359 359 358 354 353 354 356 358 353 353 11 46 124 154 160 161 168 151 170 222 340 103 142 177 196 184 187 170 175 185 192 203 235 243 242 250 217 230 149 206 185 232 228 207 274
360 359 358 358 356 353 353 354 357 1 356 1 46 85 130 141 147 146 145 182 191 80 321 350 2 171 203 170 193 157 169 201 213 206 331 252 256 229 204 222 235 198 234 254 275 263 326
358 358 358 357 355 353 354 354 356 1 357 17 101 96 113 139 136 151 169 174 273 198 293 332 43 192 198 204 219 187 209 224 214 202 215 201 250 257 223 201 189 165 210 292 194 76 255
357 358 358 355 356 358 358 357 358 2 1 31 127 91 96 123 121 154 138 201 226 232 308 235 274 264 203 183 187 195 193 190 227 204 212 220 268 230 64 175 123 218 142 179 218 221 254
357 359 357 358 1 2 3 1 359 0 6 42 151 112 85 134 109 103 194 208 282 280 264 268 287 287 293 237 225 202 204 225 216 117 200 206 234 254 246 219 223 165 211 201 257 275 259
358 359 0 2 4 5 5 4 1 0 9 37 115 99 46 140 66 35 121 342 346 344 10 337 273 256 264 289 256 233 221 238 350 164 167 209 229 252 253 226 203 222 219 212 249 227 239
356 359 2 6 9 7 6 6 4 3 5 17 58 75 40 154 132 92 7 45 358 10 18 358 346 12 25 284 267 253 287 108 18 198 180 170 217 249 266 186 164 218 200 214 223 230 212
355 359 1 6 9 8 7 9 10 5 6 18 39 104 32 59 63 60 23 9 340 7 90 356 344 297 346 327 33 304 306 314 340 15 356 182 207 231 257 275 112 238 217 205 209 215 222
354 359 2 4 7 7 8 10 11 11 11 50 46 63 30 29 45 63 355 351 339 350 359 354 120 36 328 283 290 294 339 323 298 22 27 220 250 228 247 259 251 261 261 213 208 224 213
353 358 0 3 5 5 5 7 11 16 24 49 66 30 25 54 356 359 4 58 3 346 309 350 18 339 334 268 38 329 347 313 292 321 340 8 271 261 265 262 259 250 256 239 232 244 239
353 357 357 0 2 2 6 11 10 17 28 46 36 28 45 6 20 309 50 30 328 344 252 258 10 327 305 266 313 288 269 265 267 291 299 281 270 276 261 280 295 257 243 231 225 218 213
352 355 356 360 3 3 6 6 8 13 24 34 28 32 14 71 354 32 285 312 289 293 278 293 313 281 322 309 309 285 258 252 255 254 236 253 258 259 272 284 249 272 322 271 218 217 217
349 352 354 359 360 358 360 3 6 14 19 21 24 29 20 335 308 294 304 285 297 290 267 267 281 279 303 303 271 266 238 247 247 238 247 227 244 256 244 247 280 282 221 235 214 238 225
344 348 351 355 355 356 358 0 7 11 13 13 16 18 7 319 191 292 316 310 316 324 300 262 302 316 320 265 236 244 250 280 261 201 61 191 226 239 227 247 247 254 13 354 297 249 20
339 342 346 350 350 354 357 359 2 4 5 6 5 7 4 298 268 223 263 301 255 264 276 300 340 341 0 282 247 257 257 323 256 261 281 279 179 229 233 247 251 7 327 322 236 299 334
336 340 344 345 346 348 351 357 358 357 360 0 354 352 352 292 288 249 236 237 249 229 277 324 297 171 295 352 311 341 278 345 277 287 311 281 282 251 233 244 243 7 345 287 337 316 340
332 337 341 342 342 343 345 349 353 353 356 360 356 341 332 291 272 296 289 273 248 242 253 269 300 279 322 318 355 284 291 273 309 283 152 277 298 314 260 333 337 330 298 302 316 293 331
Wind_Speed_850mb
41 41 41 41 40 39 39 38 36 34 30 28 25 21 16 12 10 8 6 6 6 6 3 5 11 14 14 12 5 8 20 37 34 34 30 23 18 8 1 6 6 4 1 6 8 6 7
46 45 44 43 42 41 41 40 40 39 37 33 28 24 20 15 11 8 5 3 2 2 4 2 7 13 15 11 13 11 12 41 38 35 26 19 8 9 11 5 3 3 9 3 7 8 11
47 47 46 46 44 44 43 42 42 41 40 38 34 30 24 17 14 11 7 5 3 1 2 1 2 10 15 19 14 11 17 31 30 31 17 20 5 3 9 8 6 9 3 3 9 11 5
49 50 49 48 48 46 45 43 41 41 41 40 38 35 30 21 15 14 11 8 6 4 5 6 3 4 10 18 16 18 22 31 27 27 13 17 9 7 5 14 5 4 2 6 4 1 8
52 53 53 52 51 51 49 45 42 40 40 40 40 39 34 25 14 14 13 11 9 8 7 10 6 5 6 19 19 21 17 19 27 19 12 10 12 8 9 3 1 1 9 6 4 10 1
53 54 55 54 54 53 52 47 45 42 40 41 41 42 35 26 12 15 13 11 10 10 11 8 11 5 8 12 23 25 21 15 19 25 16 7 5 4 5 5 9 11 9 6 10 11 12
54 55 57 57 56 56 55 54 49 45 42 42 43 42 35 28 11 17 16 11 6 6 21 13 7 5 6 7 21 23 27 24 22 13 10 6 10 18 12 17 12 12 9 14 6 12 19
57 59 60 60 59 58 57 56 54 47 44 45 46 41 34 24 11 21 22 14 9 5 5 16 29 24 12 13 8 18 26 19 11 13 12 7 24 10 10 11 15 15 19 16 3 8 20
59 63 65 65 63 61 61 59 55 50 45 48 48 43 32 14 12 23 26 20 10 6 3 6 14 22 21 25 9 18 37 20 14 14 17 18 7 5 12 14 11 17 17 8 9 10 16
63 66 70 70 67 66 66 63 59 53 48 51 51 40 21 5 12 19 19 23 18 8 3 5 6 9 19 16 10 21 37 22 8 21 13 14 10 17 12 12 8 8 4 10 11 7 5
67 69 73 73 71 69 68 66 62 55 50 52 49 26 7 16 16 26 24 12 18 16 2 4 7 10 20 16 12 15 40 24 16 10 11 12 7 13 11 7 12 8 3 14 10 6 6
68 72 75 74 74 73 71 69 65 56 51 49 33 15 5 23 26 24 18 15 21 5 4 5 9 12 13 8 5 11 13 20 11 8 7 17 5 10 8 6 8 18 18 15 7 1 7
69 74 78 77 76 75 75 71 64 56 52 43 18 11 12 22 23 19 13 29 5 5 2 5 4 9 15 13 11 11 20 19 14 15 25 18 28 18 13 11 13 8 9 2 4 5 6
71 76 78 77 77 77 75 70 62 56 51 34 13 11 19 17 27 16 32 4 4 2 2 3 4 2 15 16 11 9 14 21 15 9 2 7 14 17 21 28 21 20 11 7 10 8 7
73 77 78 78 78 76 72 68 63 56 48 21 14 21 18 21 14 19 7 3 1 4 3 9 1 4 11 11 7 11 13 18 21 33 20 10 11 4 14 11 20 13 17 4 4 2 7
73 76 77 79 78 72 67 68 65 55 44 12 22 24 20 17 10 9 3 3 3 6 7 2 4 3 7 11 17 14 16 7 14 35 47 10 19 8 4 10 9 12 19 7 6 8 14
72 73 75 78 75 67 65 67 66 58 44 8 15 9 8 9 6 4 4 3 5 5 7 4 2 4 2 4 9 12 11 4 6 4 30 18 14 29 4 15 20 10 9 3 3 7 14
70 69 72 74 71 65 62 62 65 62 48 9 7 5 1 7 4 4 4 3 8 7 13 4 3 2 4 2 6 9 13 7 10 11 16 19 10 21 34 12 6 6 14 12 12 10 2
65 65 68 70 67 65 63 60 61 60 53 24 7 6 13 7 4 4 3 1 4 10 10 9 6 4 4 2 6 4 3 3 20 8 10 15 12 10 12 8 8 15 16 21 13 4 16
61 62 63 65 63 63 62 60 59 57 48 19 5 2 15 22 12 5 4 5 4 11 3 10 8 0 4 3 3 5 5 5 21 7 4 18 12 16 24 26 2 10 15 23 29 14 15
57 58 58 60 60 60 60 59 58 57 46 9 13 7 7 5 10 7 2 3 4 7 8 11 2 12 6 5 4 3 6 13 5 6 8 7 13 18 31 32 18 24 26 25 32 29 21
53 54 53 56 57 57 58 58 57 58 40 50 10 7 7 5 4 3 6 4 3 6 6 3 6 20 12 6 4 6 14 5 8 7 9 2 9 4 13 26 26 28 27 26 36 17 19
50 50 50 52 53 53 54 54 55 56 52 28 25 16 5 7 4 2 3 4 1 10 7 8 14 13 15 2 22 30 28 36 34 17 13 9 6 5 24 18 19 22 28 31 22 19 28
47 46 46 48 49 49 50 50 49 49 48 41 38 16 8 4 2 3 3 8 12 8 8 17 26 8 8 36 42 35 25 35 35 37 38 21 13 8 15 13 33 22 8 22 33 20 26
44 43 43 43 46 46 48 47 42 39 39 33 33 24 11 4 6 2 3 7 16 16 12 15 16 8 31 17 8 11 10 11 24 32 30 31 24 14 16 22 20 23 6 8 17 26 26
41 40 40 41 44 45 44 41 35 34 35 32 25 26 12 4 4 4 7 6 5 7 7 7 14 23 6 6 6 9 9 4 7 6 7 7 28 23 11 19 36 26 17 23 14 19 1
38 37 38 40 41 42 41 33 31 31 33 32 22 22 15 7 7 6 6 5 3 3 7 10 15 7 9 3 7 9 13 5 9 11 8 2 4 20 25 20 15 15 32 17 16 10 32
33 35 37 40 38 38 35 32 33 35 33 31 24 24 22 10 25 13 11 10 7 5 6 8 10 2 4 3 5 3 5 3 7 4 8 7 7 7 5 9 22 33 7 2 17 33 28
30 33 36 38 38 36 30 30 32 34 34 31 27 30 29 17 18 37 31 27 31 19 11 7 5 6 4 3 1 4 5 5 5 7 5 8 5 7 8 5 16 17 14 29 27 25 20
Wind_Direction_850mb
37 35 33 30 26 22 18 13 10 8 6 1 352 346 340 332 331 338 358 19 31 36 41 206 204 203 190 212 192 152 185 183 179 183 182 177 172 199 311 122 131 302 346 3 359 130 49
39 34 30 27 24 20 16 13 9 6 3 358 352 343 329 319 305 300 316 338 1 43 58 101 189 193 188 216 181 164 161 184 191 187 190 185 217 198 110 124 36 21 78 13 343 3 45
36 32 28 24 22 18 14 11 8 4 1 357 353 347 334 310 292 277 264 263 268 305 202 125 152 196 207 198 195 204 160 186 186 193 204 190 218 159 134 121 118 130 329 109 44 337 5
31 27 25 21 18 15 11 8 4 359 357 353 348 343 337 319 282 268 252 242 243 243 228 228 245 248 233 205 193 171 162 181 183 186 127 194 212 120 77 123 87 317 295 343 94 312 355
28 25 22 20 16 14 10 5 2 357 351 348 344 338 336 327 284 254 242 232 227 234 230 224 248 236 244 195 183 175 162 185 185 178 181 168 159 103 119 143 352 233 324 286 289 190 96
23 22 19 16 11 9 9 6 1 356 350 345 341 335 334 332 287 239 229 218 212 223 218 230 239 270 210 187 189 184 165 147 156 149 135 139 100 163 135 206 332 324 307 255 260 189 188
18 16 13 10 7 5 4 4 1 355 349 343 340 334 330 328 275 222 212 190 203 240 216 204 202 130 87 176 196 194 190 148 131 146 183 171 228 241 254 229 263 287 267 276 234 190 196
16 12 9 5 3 2 0 360 358 354 347 341 338 331 325 320 248 212 203 196 192 163 292 245 237 243 225 138 149 190 188 167 169 171 139 181 247 240 248 239 243 263 282 271 277 177 209
12 9 6 4 2 0 358 356 354 352 346 341 336 330 320 308 214 207 211 203 201 204 278 260 233 232 224 221 222 190 175 161 173 184 194 230 242 80 244 273 270 281 262 263 291 162 223
8 7 5 4 1 360 357 354 353 351 346 341 335 331 314 231 188 197 207 195 203 193 292 171 215 206 189 184 201 201 189 176 166 211 181 253 269 255 255 261 240 304 290 253 177 208 311
4 4 3 3 0 356 355 354 353 352 348 344 338 339 308 164 153 150 154 157 197 174 187 122 135 172 165 183 139 177 183 184 204 183 194 225 241 227 240 282 194 340 23 137 164 187 283
3 2 1 1 359 355 354 355 355 355 350 348 349 0 128 161 149 152 153 144 136 221 146 123 132 164 167 197 139 124 164 188 201 192 235 256 261 260 266 86 215 145 106 92 89 162 261
1 0 359 359 358 354 353 354 356 358 353 353 11 46 124 154 160 161 168 151 170 222 340 103 142 177 196 184 187 170 175 185 192 203 235 243 242 250 217 230 149 206 185 232 228 207 274
360 359 358 358 356 353 353 354 357 1 356 1 46 85 130 141 147 146 145 182 191 80 321 350 2 171 203 170 193 157 169 201 213 206 331 252 256 229 204 222 235 198 234 254 275 263 326
358 358 358 357 355 353 354 354 356 1 357 17 101 96 113 139 136 151 169 174 273 198 293 332 43 192 198 204 219 187 209 224 214 202 215 201 250 257 223 201 189 165 210 292 194 76 255
357 358 358 355 356 358 358 357 358 2 1 31 127 91 96 123 121 154 138 201 226 232 308 235 274 264 203 183 187 195 193 190 227 204 212 220 268 230 64 175 123 218 142 179 218 221 254
357 359 357 358 1 2 3 1 359 0 6 42 151 112 85 134 109 103 194 208 282 280 264 268 287 287 293 237 225 202 204 225 216 117 200 206 234 254 246 219 223 165 211 201 257 275 259
358 359 0 2 4 5 5 4 1 0 9 37 115 99 46 140 66 35 121 342 346 344 10 337 273 256 264 289 256 233 221 238 350 164 167 209 229 252 253 226 203 222 219 212 249 227 239
356 359 2 6 9 7 6 6 4 3 5 17 58 75 40 154 132 92 7 45 358 10 18 358 346 12 25 284 267 253 287 108 18 198 180 170 217 249 266 186 164 218 200 214 223 230 212
355 359 1 6 9 8 7 9 10 5 6 18 39 104 32 59 63 60 23 9 340 7 90 356 344 297 346 327 33 304 306 314 340 15 356 182 207 231 257 275 112 238 217 205 209 215 222
354 359 2 4 7 7 8 10 11 11 11 50 46 63 30 29 45 63 355 351 339 350 359 354 120 36 328 283 290 294 339 323 298 22 27 220 250 228 247 259 251 261 261 213 208 224 213
353 358 0 3 5 5 5 7 11 16 24 49 66 30 25 54 356 359 4 58 3 346 309 350 18 339 334 268 38 329 347 313 292 321 340 8 271 261 265 262 259 250 256 239 232 244 239
353 357 357 0 2 2 6 11 10 17 28 46 36 28 45 6 20 309 50 30 328 344 252 258 10 327 305 266 313 288 269 265 267 291 299 281 270 276 261 280 295 257 243 231 225 218 213
352 355 356 360 3 3 6 6 8 13 24 34 28 32 14 71 354 32 285 312 289 293 278 293 313 281 322 309 309 285 258 252 255 254 236 253 258 259 272 284 249 272 322 271 218 217 217
349 352 354 359 360 358 360 3 6 14 19 21 24 29 20 335 308 294 304 285 297 290 267 267 281 279 303 303 271 266 238 247 247 238 247 227 244 256 244 247 280 282 221 235 214 238 225
344 348 351 355 355 356 358 0 7 11 13 13 16 18 7 319 191 292 316 310 316 324 300 262 302 316 320 265 236 244 250 280 261 201 61 191 226 239 227 247 247 254 13 354 297 249 20
339 342 346 350 350 354 357 359 2 4 5 6 5 7 4 298 268 223 263 301 255 264 276 300 340 341 0 282 247 257 257 323 256 261 281 279 179 229 233 247 251 7 327 322 236 299 334
336 340 344 345 346 348 351 357 358 357 360 0 354 352 352 292 288 249 236 237 249 229 277 324 297 171 295 352 311 341 278 345 277 287 311 281 282 251 233 244 243 7 345 287 337 316 340
332 337 341 342 342 343 345 349 353 353 356 360 356 341 332 291 272 296 289 273 248 242 253 269 300 279 322 318 355 284 291 273 309 283 152 277 298 314 260 333 337 330 298 302 316 293 331